Location: Lansingburgh
(42.7845°N, 73.6696°W)
Time: 09:27:52
(UTC+00:00)

BlueWalker 3 - Pass Details

Date: 08 October 2024
Orbit: 470 x 481 km, 53.2° (Epoch: 11 November)

Event Time Altitude Azimuth Distance (km) Brightness Sun altitude
Exits shadow 09:56:13 19° 291° (WNW) 1,194 3.3 -12.6°
Maximum altitude 09:58:04 28° 337° (NNW) 909 3.0 -12.2°
Drops below altitude 10° 10:01:18 10° 38° (NE) 1,634 5.1 -11.7°
Sets 10:03:40 0° 51° (NE) 2,515 6.4 -11.2°
